Showing default

OPS 9325 (IDSCS 12), 2652

Orbit data source: Space-Track

OPS 9325 (IDSCS 12), 2652 is a payload satellite owned by USAF SSD (US) in GEO that was launched on Wed, 18 Jan 1967 UTC via a TITAN IIIC launch vehicle from the Air Force Eastern Test Range (AFETR). Payload-class satellites include a variety of spacecraft equipped with specific instruments for various scientific and technological missions. These include communications satellites like Starlink; space stations such as the ISS; scientific satellites like the Hubble; Earth observation satellites from companies like Planet Labs, Umbra, and HawkEye 360; GPS; miniature CubeSats for education and research; and military/defense satellites.

Not visible in the next 10 days
Identifier
2652, 1967-003E
Orbit
GEO
Last TLE update
5 days ago
Origin
Manufacturer
Philco-Ford WDL
Mission
Non-operational Defense Communications
Bus & Motor
IDCSP, Unknown motor
Mass
45 kg wet, 45 kg dry
Launch date (UTC)
1967-01-18 (59 years ago)
Launch vehicle
TITAN IIIC
Launch site
Air Force Eastern Test Range (AFETR)
Object type
Payload
Rocket body
Debris
Shape & HBR
Ico Poly, 0.5 m
Radar Cross Section
0.926 m², Small (<0.1 m²)

Expand to show TLE details & history

TLE from 5 days ago
0 OPS 9325 (IDSCS 12)
1 02652U 67003E   25196.70480461 -.00000097  00000-0  00000-0 0  9991
2 02652   7.6198  48.8143 0039576  71.8975 288.5826  1.07942895136489
Epoch: 2025-07-15T16:54Z
TLE epoch observation values (Epoch: 2025-07-15T16:54:55.118Z)
Latitude
-0.00001°
Longitude
-138.66473°
Altitude
33,713.608 km
Speed
3.155 km/s
True Right ascension
03h 15m 26s
True Declination
0° 00' 00"
Sunlit
Object was in daylight at epoch
Visualization orbit readout
Latitude
4.18437°
Longitude
-105.74126°
Altitude
33,639.03 km
Speed
3.161 km/s
Apparent Right ascension
05h 54m 33s
Apparent Declination
-1° 37' 17"
Sunlit
Object is in daylight
Visualization observer readout
Local Sidereal Time
23:00:33
Azimuth
82.497° E
Elevation
-11.369°
Doppler factor
1
Orbital elements
Apogee altitude
33,924.457 km
Perigee altitude
33,606.711 km
Semi-major axis
40,143.721 km
Eccentricity
0.00396
Inclination
7.6198°
RAAN
48.8143°
Arg. of periapsis
71.8975°
True anomaly
288.15206°
Mean anomaly
288.5826°
Eccentric anomaly
288.3674°
Mean motion
0.26985 °/min
Orbital period
1,334.09 mins
BSTAR
0
Loading maneuver chart data...
Loading SW <> Apogee altitude chart data...
Loading historical data...
Loading historical data...
Loading historical data...
Loading historical data...
Loading historical data...
Loading historical data...
Loading historical data...
|